Torna al catalogo

SITRO-AIS-27

AttivoComunicazioniPO
NORAD 59068·PAYLOAD·🇷🇺 Russia
Questo nome del satellite non è ancora stato confermato da fonti ufficiali.

Lanciato Feb 29, 2024 da Vostochny Cosmodrome

Loading…

Prossimi Passaggi (prossime 24 ore)

TLE

AggiornatoSource: Space-Track

Epoca: Sep 14, 2026, 21:34 UTC

1 59068U 24039T   26257.89907163  .00002955  00000-0  22740-3 0  9990
2 59068  95.3817 296.9081 0143146  14.1066 346.4092 14.94253206138135

Traccia SITRO-AIS-27 in tempo reale con AllMySat

Download on the App Store